Time,TemperatureF,DewpointF,PressureIn,WindDirection,WindDirectionDegrees,WindSpeedMPH,WindSpeedGustMPH,Humidity,HourlyPrecipIn,Conditions,Clouds,dailyrainin,SoftwareType,DateUTC
2013-05-17 00:09:00,53.6,49.0,30.00,NW,317,0.0,1.0,83,0.00,,,0.00,weatherlink.com 1.10,2013-05-17 07:09:00,
2013-05-17 00:24:00,53.3,48.0,30.00,NW,317,2.0,3.0,83,0.00,,,0.00,weatherlink.com 1.10,2013-05-17 07:24:00,
2013-05-17 00:39:00,53.2,48.0,30.00,NW,317,0.0,1.0,83,0.00,,,0.00,weatherlink.com 1.10,2013-05-17 07:39:00,
2013-05-17 00:54:00,53.0,48.0,30.01,NW,317,0.0,2.0,83,0.00,,,0.00,weatherlink.com 1.10,2013-05-17 07:54:00,
2013-05-17 01:09:00,52.7,48.0,30.00,NW,317,0.0,2.0,84,0.00,,,0.00,weatherlink.com 1.10,2013-05-17 08:09:00,
2013-05-17 01:24:00,52.7,48.0,30.00,NW,317,0.0,3.0,83,0.00,,,0.00,weatherlink.com 1.10,2013-05-17 08:24:00,
2013-05-17 01:39:00,52.4,48.0,30.00,NW,317,0.0,1.0,84,0.00,,,0.00,weatherlink.com 1.10,2013-05-17 08:39:00,
2013-05-17 01:55:00,51.8,48.0,30.00,NW,317,0.0,0.0,85,0.00,,,0.00,weatherlink.com 1.10,2013-05-17 08:55:00,
2013-05-17 02:10:00,51.3,47.0,30.00,NW,317,0.0,1.0,86,0.00,,,0.00,weatherlink.com 1.10,2013-05-17 09:10:00,
2013-05-17 02:25:00,51.0,47.0,29.99,NW,317,0.0,1.0,86,0.00,,,0.00,weatherlink.com 1.10,2013-05-17 09:25:00,
2013-05-17 02:40:00,50.9,47.0,29.99,NW,317,0.0,1.0,86,0.00,,,0.00,weatherlink.com 1.10,2013-05-17 09:40:00,
2013-05-17 02:55:00,50.7,47.0,29.99,NW,317,0.0,0.0,86,0.00,,,0.00,weatherlink.com 1.10,2013-05-17 09:55:00,
2013-05-17 03:10:00,50.3,46.0,29.99,NW,317,0.0,1.0,86,0.00,,,0.00,weatherlink.com 1.10,2013-05-17 10:10:00,
2013-05-17 03:25:00,49.9,47.0,29.99,NW,317,0.0,0.0,88,0.00,,,0.00,weatherlink.com 1.10,2013-05-17 10:25:00,
2013-05-17 03:40:00,49.7,46.0,29.99,NW,317,0.0,0.0,88,0.00,,,0.00,weatherlink.com 1.10,2013-05-17 10:40:00,
2013-05-17 03:55:00,49.6,46.0,29.99,NW,317,0.0,0.0,88,0.00,,,0.00,weatherlink.com 1.10,2013-05-17 10:55:00,
2013-05-17 04:10:00,49.7,47.0,29.99,NW,317,0.0,1.0,89,0.00,,,0.00,weatherlink.com 1.10,2013-05-17 11:10:00,
2013-05-17 04:25:00,49.9,46.0,29.99,NW,317,0.0,0.0,87,0.00,,,0.00,weatherlink.com 1.10,2013-05-17 11:25:00,
2013-05-17 04:40:00,49.5,46.0,29.98,NW,317,0.0,0.0,88,0.00,,,0.00,weatherlink.com 1.10,2013-05-17 11:40:00,
2013-05-17 04:55:00,49.0,46.0,29.99,NW,317,0.0,0.0,89,0.00,,,0.00,weatherlink.com 1.10,2013-05-17 11:55:00,
2013-05-17 05:10:00,50.2,47.0,29.99,West,281,3.0,6.0,88,0.00,,,0.00,weatherlink.com 1.10,2013-05-17 12:10:00,
2013-05-17 05:25:00,51.7,47.0,29.99,West,263,2.0,5.0,85,0.00,,,0.00,weatherlink.com 1.10,2013-05-17 12:25:00,
2013-05-17 05:40:00,51.8,47.0,29.99,West,264,3.0,8.0,84,0.00,,,0.00,weatherlink.com 1.10,2013-05-17 12:40:00,
2013-05-17 05:55:00,52.2,48.0,29.98,WSW,255,2.0,9.0,84,0.00,,,0.00,weatherlink.com 1.10,2013-05-17 12:55:00,
2013-05-17 06:10:00,52.2,47.0,29.98,West,278,3.0,7.0,83,0.00,,,0.00,weatherlink.com 1.10,2013-05-17 13:10:00,
2013-05-17 06:25:00,52.6,48.0,29.99,WNW,284,6.0,12.0,83,0.00,,,0.00,weatherlink.com 1.10,2013-05-17 13:25:00,
2013-05-17 06:40:00,52.9,48.0,29.99,West,267,2.0,9.0,82,0.00,,,0.00,weatherlink.com 1.10,2013-05-17 13:40:00,
2013-05-17 06:55:00,53.4,48.0,29.99,West,275,4.0,9.0,81,0.00,,,0.00,weatherlink.com 1.10,2013-05-17 13:55:00,
2013-05-17 07:10:00,54.1,48.0,30.00,West,273,5.0,8.0,80,0.00,,,0.00,weatherlink.com 1.10,2013-05-17 14:10:00,
2013-05-17 07:25:00,54.9,48.0,30.00,SW,232,4.0,10.0,78,0.00,,,0.00,weatherlink.com 1.10,2013-05-17 14:25:00,
2013-05-17 07:40:00,55.4,48.0,30.00,WSW,251,7.0,13.0,76,0.00,,,0.00,weatherlink.com 1.10,2013-05-17 14:40:00,
2013-05-17 07:55:00,55.8,48.0,30.01,West,278,2.0,12.0,75,0.00,,,0.00,weatherlink.com 1.10,2013-05-17 14:55:00,
2013-05-17 08:10:00,55.6,48.0,30.01,West,275,1.0,14.0,76,0.00,,,0.00,weatherlink.com 1.10,2013-05-17 15:10:00,
2013-05-17 08:25:00,56.9,48.0,30.02,WNW,296,3.0,11.0,73,0.00,,,0.00,weatherlink.com 1.10,2013-05-17 15:25:00,
2013-05-17 08:40:00,57.1,49.0,30.02,West,262,1.0,8.0,73,0.00,,,0.00,weatherlink.com 1.10,2013-05-17 15:40:00,
2013-05-17 08:55:00,57.7,49.0,30.02,WSW,243,0.0,7.0,72,0.00,,,0.00,weatherlink.com 1.10,2013-05-17 15:55:00,
2013-05-17 09:10:00,58.5,48.0,30.02,West,261,4.0,7.0,69,0.00,,,0.00,weatherlink.com 1.10,2013-05-17 16:10:00,
2013-05-17 09:25:00,58.9,49.0,30.02,SSW,200,1.0,7.0,69,0.00,,,0.00,weatherlink.com 1.10,2013-05-17 16:25:00,
2013-05-17 09:40:00,59.0,48.0,30.02,WSW,240,3.0,10.0,68,0.00,,,0.00,weatherlink.com 1.10,2013-05-17 16:40:00,
2013-05-17 09:55:00,60.6,49.0,30.02,South,173,3.0,9.0,66,0.00,,,0.00,weatherlink.com 1.10,2013-05-17 16:55:00,
2013-05-17 10:11:00,60.8,49.0,30.02,SW,217,0.0,10.0,65,0.00,,,0.00,weatherlink.com 1.10,2013-05-17 17:11:00,
2013-05-17 10:26:00,61.4,49.0,30.02,WSW,246,4.0,10.0,63,0.00,,,0.00,weatherlink.com 1.10,2013-05-17 17:26:00,
2013-05-17 10:41:00,62.1,48.0,30.02,NNW,329,4.0,8.0,60,0.00,,,0.00,weatherlink.com 1.10,2013-05-17 17:41:00,
2013-05-17 10:56:00,62.2,47.0,30.03,West,267,3.0,9.0,59,0.00,,,0.00,weatherlink.com 1.10,2013-05-17 17:56:00,
2013-05-17 11:11:00,62.0,48.0,30.03,West,267,4.0,13.0,60,0.00,,,0.00,weatherlink.com 1.10,2013-05-17 18:11:00,
2013-05-17 11:26:00,62.7,47.0,30.03,WSW,258,9.0,10.0,58,0.00,,,0.00,weatherlink.com 1.10,2013-05-17 18:26:00,
2013-05-17 11:41:00,63.1,48.0,30.03,WSW,242,4.0,10.0,58,0.00,,,0.00,weatherlink.com 1.10,2013-05-17 18:41:00,
2013-05-17 11:56:00,62.9,47.0,30.04,WSW,239,2.0,12.0,57,0.00,,,0.00,weatherlink.com 1.10,2013-05-17 18:56:00,
2013-05-17 12:11:00,63.0,48.0,30.04,WSW,244,5.0,10.0,58,0.00,,,0.00,weatherlink.com 1.10,2013-05-17 19:11:00,
2013-05-17 12:26:00,62.8,48.0,30.04,WSW,258,5.0,10.0,59,0.00,,,0.00,weatherlink.com 1.10,2013-05-17 19:26:00,
2013-05-17 12:41:00,62.9,47.0,30.04,NNE,24,3.0,11.0,57,0.00,,,0.00,weatherlink.com 1.10,2013-05-17 19:41:00,
2013-05-17 12:56:00,63.7,48.0,30.03,WNW,290,3.0,9.0,56,0.00,,,0.00,weatherlink.com 1.10,2013-05-17 19:56:00,
2013-05-17 13:11:00,63.2,47.0,30.03,WSW,254,6.0,14.0,56,0.00,,,0.00,weatherlink.com 1.10,2013-05-17 20:11:00,
2013-05-17 13:26:00,63.9,47.0,30.04,West,279,3.0,11.0,54,0.00,,,0.00,weatherlink.com 1.10,2013-05-17 20:26:00,
2013-05-17 13:41:00,64.0,48.0,30.04,WNW,288,2.0,10.0,56,0.00,,,0.00,weatherlink.com 1.10,2013-05-17 20:41:00,
2013-05-17 13:56:00,64.2,48.0,30.04,North,355,5.0,14.0,55,0.00,,,0.00,weatherlink.com 1.10,2013-05-17 20:56:00,
2013-05-17 14:11:00,64.1,48.0,30.04,North,5,6.0,14.0,56,0.00,,,0.00,weatherlink.com 1.10,2013-05-17 21:11:00,
2013-05-17 14:26:00,64.6,47.0,30.04,West,264,4.0,10.0,53,0.00,,,0.00,weatherlink.com 1.10,2013-05-17 21:26:00,
2013-05-17 14:41:00,64.8,46.0,30.04,NW,304,9.0,14.0,50,0.00,,,0.00,weatherlink.com 1.10,2013-05-17 21:41:00,
2013-05-17 14:56:00,64.6,47.0,30.04,West,274,3.0,12.0,54,0.00,,,0.00,weatherlink.com 1.10,2013-05-17 21:56:00,
2013-05-17 15:11:00,64.5,48.0,30.04,WNW,300,8.0,13.0,55,0.00,,,0.00,weatherlink.com 1.10,2013-05-17 22:11:00,
2013-05-17 15:26:00,63.0,46.0,30.04,West,271,7.0,12.0,55,0.00,,,0.00,weatherlink.com 1.10,2013-05-17 22:26:00,
2013-05-17 15:41:00,64.2,47.0,30.04,WSW,257,1.0,14.0,54,0.00,,,0.00,weatherlink.com 1.10,2013-05-17 22:41:00,
2013-05-17 15:56:00,64.3,47.0,30.04,WNW,290,5.0,12.0,54,0.00,,,0.00,weatherlink.com 1.10,2013-05-17 22:56:00,
2013-05-17 16:11:00,63.2,47.0,30.04,WSW,252,2.0,11.0,55,0.00,,,0.00,weatherlink.com 1.10,2013-05-17 23:11:00,
2013-05-17 16:26:00,63.3,47.0,30.04,West,267,3.0,11.0,55,0.00,,,0.00,weatherlink.com 1.10,2013-05-17 23:26:00,
2013-05-17 16:41:00,63.0,48.0,30.04,West,260,3.0,11.0,58,0.00,,,0.00,weatherlink.com 1.10,2013-05-17 23:41:00,
2013-05-17 16:56:00,63.0,47.0,30.05,WNW,294,3.0,10.0,57,0.00,,,0.00,weatherlink.com 1.10,2013-05-17 23:56:00,
2013-05-17 17:11:00,63.2,47.0,30.04,NW,305,6.0,9.0,56,0.00,,,0.00,weatherlink.com 1.10,2013-05-18 00:11:00,
2013-05-17 17:26:00,62.7,47.0,30.04,NW,325,1.0,9.0,57,0.00,,,0.00,weatherlink.com 1.10,2013-05-18 00:26:00,
2013-05-17 17:41:00,61.5,45.0,30.04,NNW,347,2.0,13.0,56,0.00,,,0.00,weatherlink.com 1.10,2013-05-18 00:41:00,
2013-05-17 17:56:00,60.7,46.0,30.04,West,281,5.0,11.0,59,0.00,,,0.00,weatherlink.com 1.10,2013-05-18 00:56:00,
2013-05-17 18:11:00,60.5,47.0,30.04,WNW,288,2.0,10.0,61,0.00,,,0.00,weatherlink.com 1.10,2013-05-18 01:11:00,
2013-05-17 18:26:00,60.2,47.0,30.04,WSW,244,6.0,12.0,62,0.00,,,0.00,weatherlink.com 1.10,2013-05-18 01:26:00,
2013-05-17 18:41:00,59.7,46.0,30.05,WNW,284,0.0,7.0,61,0.00,,,0.00,weatherlink.com 1.10,2013-05-18 01:41:00,
2013-05-17 18:56:00,59.1,45.0,30.05,SW,223,3.0,12.0,61,0.00,,,0.00,weatherlink.com 1.10,2013-05-18 01:56:00,
2013-05-17 19:11:00,58.5,45.0,30.06,West,267,3.0,13.0,61,0.00,,,0.00,weatherlink.com 1.10,2013-05-18 02:11:00,
2013-05-17 19:26:00,58.0,45.0,30.06,NW,314,3.0,8.0,63,0.00,,,0.00,weatherlink.com 1.10,2013-05-18 02:26:00,
2013-05-17 19:41:00,57.0,45.0,30.06,NW,309,7.0,7.0,65,0.00,,,0.00,weatherlink.com 1.10,2013-05-18 02:41:00,
2013-05-17 19:56:00,56.0,46.0,30.06,SW,234,4.0,8.0,68,0.00,,,0.00,weatherlink.com 1.10,2013-05-18 02:56:00,
2013-05-17 20:11:00,55.5,45.0,30.07,WSW,241,3.0,12.0,69,0.00,,,0.00,weatherlink.com 1.10,2013-05-18 03:11:00,
2013-05-17 20:26:00,54.9,46.0,30.07,SW,236,3.0,11.0,71,0.00,,,0.00,weatherlink.com 1.10,2013-05-18 03:26:00,
2013-05-17 20:41:00,54.6,46.0,30.07,West,281,3.0,9.0,72,0.00,,,0.00,weatherlink.com 1.10,2013-05-18 03:41:00,
2013-05-17 20:56:00,54.2,46.0,30.08,West,267,4.0,8.0,73,0.00,,,0.00,weatherlink.com 1.10,2013-05-18 03:56:00,
2013-05-17 21:11:00,54.0,46.0,30.08,WSW,250,3.0,8.0,74,0.00,,,0.00,weatherlink.com 1.10,2013-05-18 04:11:00,
2013-05-17 21:26:00,53.9,46.0,30.09,West,265,2.0,9.0,75,0.00,,,0.00,weatherlink.com 1.10,2013-05-18 04:26:00,
2013-05-17 21:41:00,53.7,46.0,30.09,WSW,252,4.0,7.0,76,0.00,,,0.00,weatherlink.com 1.10,2013-05-18 04:41:00,
2013-05-17 21:56:00,53.7,47.0,30.09,WNW,291,1.0,8.0,77,0.00,,,0.00,weatherlink.com 1.10,2013-05-18 04:56:00,
2013-05-17 22:11:00,53.6,47.0,30.09,West,280,1.0,6.0,77,0.00,,,0.00,weatherlink.com 1.10,2013-05-18 05:11:00,
2013-05-17 22:26:00,53.6,46.0,30.09,West,272,0.0,8.0,76,0.00,,,0.00,weatherlink.com 1.10,2013-05-18 05:26:00,
2013-05-17 22:41:00,53.5,46.0,30.09,West,274,5.0,7.0,76,0.00,,,0.00,weatherlink.com 1.10,2013-05-18 05:41:00,
2013-05-17 22:56:00,53.4,46.0,30.09,West,274,4.0,8.0,76,0.00,,,0.00,weatherlink.com 1.10,2013-05-18 05:56:00,
2013-05-17 23:11:00,53.2,46.0,30.09,West,259,4.0,7.0,77,0.00,,,0.00,weatherlink.com 1.10,2013-05-18 06:11:00,
2013-05-17 23:26:00,53.1,46.0,30.09,West,261,3.0,6.0,78,0.00,,,0.00,weatherlink.com 1.10,2013-05-18 06:26:00,
2013-05-17 23:41:00,52.9,47.0,30.09,West,277,2.0,7.0,79,0.00,,,0.00,weatherlink.com 1.10,2013-05-18 06:41:00,
2013-05-17 23:56:00,52.9,47.0,30.08,SSW,198,2.0,8.0,79,0.00,,,0.00,weatherlink.com 1.10,2013-05-18 06:56:00,